STARLINK-1498 (45782 NORAD) Tracking and Keplerian Element Data

This shows tracking and keplerian element data for the satellite.

Feedback or suggestion? Click here.




ElementValue
Catalog45782
NameSTARLINK-1498
Epoch Orbit955
Epoch Day219.16667824
Epoch Year2020
RAAN32.6761
Inclination53.0003
Eccentricity0.0001476
Argument of Perigee28.1945
Mean Anonmoly136.4879
Mean Motion15.62715973
Decay Rate-0.00016693
L11 45782U 20038BE 20219.16667824 -.00016693 00000-0 -17709-3 0 9997
L22 45782 53.0003 32.6761 0001476 28.1945 136.4879 15.62715973 9554

Live tracking and technical data element details for STARLINK-1498 (NORAD 45782). STARLINK-1498 can be tracked NOW for your location showing map with azimuth and elevation plus other details from your city location.

Track the satellite on the map from your city or location and see movement details for azimuth, elevation, latitude, longitude, range, height, and movement on the map or in text.







IsCatalogInMostPopularTable: catalog: 45782, numindb: 18
Update: records affected: 1



GetName: 45782 STARLINK-1498

Hit Count: updated at: Sat, 08 Aug 2020 01:09:29 GMT